Location: Newark
(49.4900°N, 20.6656°E)
Time: 07:28:30
(UTC+00:00)

N. Korean satellite - Visible Passes

Search period start: 01 October 2020 00:00
Search period end: 11 October 2020 00:00
Orbit: 454 x 503 km, 97.2° (Epoch: 30 September)

Date Brightness Start Highest point End Pass type
(mag) Time Alt. Az. Time Alt. Az. Time Alt. Az.
02 Oct 8.3 03:50:10 10° NNE 03:53:33 37° E 03:56:51 10° SSE visible
03 Oct 9.6 03:24:39 10° NE 03:27:20 19° E 03:29:57 10° SE visible
04 Oct 10.4 03:00:33 10° E 03:01:00 10° E 03:01:27 10° E visible
05 Oct 7.4 04:05:14 10° NNE 04:08:47 56° E 04:12:14 10° S visible
06 Oct 8.9 03:39:28 10° NE 03:42:36 28° E 03:45:40 10° SSE visible
07 Oct 9.9 03:14:13 10° NE 03:16:19 15° E 03:18:24 10° SE visible
08 Oct 10.5 16:34:53 10° WSW 16:36:29 12° W 16:38:04 10° WNW visible
09 Oct 8.0 03:54:24 10° NNE 03:57:47 41° E 04:01:06 10° S visible
10 Oct 9.4 03:28:47 10° NE 03:31:33 21° E 03:34:17 10° SE visible
